This demonstration page uses our WeatherBlox Daily Observations layout. Learn more.

Left ArrowRight Arrow

Hourly Observations for July 17, 2015

Temp ( °F °C ) Dew Point ( °F °C ) Humidity (%) Winds ( mph kmh ) Pressure ( in mb ) Visibility ( mi km ) Precip ( " mm )
12:53 am 00:53 Clear 84 28.9 64 17.8 51 51 SSE 18 30 29.79 1009 10 16 0.00 0.00
1:53 am 01:53 Clear 82 27.8 65 18.3 56 56 SSE 16 26 29.79 1009 10 16 0.00 0.00
2:53 am 02:53 Clear 80 26.7 65 18.3 60 60 SE 15 24 29.78 1009 10 16 0.00 0.00
3:53 am 03:53 Clear 78 25.6 64 17.8 62 62 SE 8 13 29.79 1009 10 16 0.00 0.00
4:53 am 04:53 Clear 76 24.4 64 17.8 67 67 ESE 10 17 29.78 1009 10 16 0.00 0.00
5:53 am 05:53 Clear 75 23.9 63 17.2 66 66 SE 13 20 29.77 1008 10 16 0.00 0.00
6:53 am 06:53 Clear 74 23.3 62 16.7 67 67 SE 12 19 29.78 1009 10 16 0.00 0.00
7:53 am 07:53 Sunny 75 23.9 62 16.7 64 64 SE 12 19 29.80 1009 10 16 0.00 0.00
8:53 am 08:53 Sunny 79 26.1 62 16.7 56 56 SSE 17 28 29.81 1010 10 16 0.00 0.00
9:53 am 09:53 Sunny 82 27.8 63 17.2 53 53 SSE 14 22 29.81 1010 10 16 0.00 0.00
10:53 am 10:53 Sunny 87 30.6 62 16.7 43 43 S 10 17 29.80 1009 10 16 0.00 0.00
11:53 am 11:53 Sunny 93 33.9 61 16.1 34 34 VRB 5 7 29.80 1009 10 16 0.00 0.00
12:53 pm 12:53 Sunny 97 36.1 60 15.6 29 29 undefined N/A 29.78 1008 10 16 0.00 0.00
1:53 pm 13:53 Sunny 99 37.2 56 13.3 24 24 VRB 5 7 29.75 1008 10 16 0.00 0.00
2:53 pm 14:53 Sunny 101 38.3 55 12.8 22 22 NNW 5 7 29.72 1007 10 16 0.00 0.00
3:53 pm 15:53 Sunny 104 40 54 12.2 19 19 E 6 9 29.70 1006 10 16 0.00 0.00
4:53 pm 16:53 Mostly Sunny 104 40 53 11.7 18 18 ESE 8 13 29.68 1005 10 16 0.00 0.00
5:53 pm 17:53 Sunny 102 38.9 52 11.1 19 19 SW 13 20 29.66 1004 10 16 0.00 0.00
6:53 pm 18:53 Sunny 104 40 52 11.1 18 18 SE 12 19 29.65 1004 10 16 0.00 0.00
7:53 pm 19:53 Sunny 100 37.8 56 13.3 23 23 SE 21 33 29.65 1004 10 16 0.00 0.00
8:53 pm 20:53 Sunny 95 35 54 12.2 25 25 SE 17 28 29.67 1005 10 16 0.00 0.00
9:53 pm 21:53 Clear 92 33.3 59 15 33 33 SE 22 35 29.69 1005 10 16 0.00 0.00
10:53 pm 22:53 Clear 88 31.1 62 16.7 42 42 SE 23 37 29.72 1006 10 16 0.00 0.00
11:53 pm 23:53 Clear 86 30 62 16.7 45 45 SE 17 28 29.75 1007 10 16 0.00 0.00

Powered by AerisWeather